This demonstration page uses our WeatherBlox Daily Observations layout. Learn more.

Left ArrowRight Arrow

39.92423, -83.80882

Hourly Observations for February 26, 2021

Temp ( °F °C ) Dew Point ( °F °C ) Humidity (%) Winds ( mph kmh ) Pressure ( in mb ) Visibility ( mi km ) Precip ( " mm )
12:56 am 00:56 Mostly Cloudy 31 -0.6 28 -2.2 89 89 Calm 30.35 1028 10 16.0934 0 0
1:56 am 01:56 Clear 29 -1.7 27 -2.8 92 92 NE 6 9 30.36 1028 10 16.0934 0 0
2:56 am 02:56 Mostly Clear 29 -1.7 27 -2.8 92 92 E 5 7 30.37 1028 10 16.0934 0 0
3:56 am 03:56 Clear 27 -2.8 26 -3.3 96 96 NE 7 11 30.36 1028 10 16.0934 0 0
4:56 am 04:56 Clear 24 -4.4 23 -5 96 96 E 8 13 30.37 1029 10 16.0934 0 0
5:56 am 05:56 Clear 27 -2.8 25 -3.9 92 92 ENE 10 17 30.37 1029 9 14.48406 0 0
6:56 am 06:56 Clear 27 -2.8 25 -3.9 92 92 E 13 20 30.35 1028 9 14.48406 0 0
7:56 am 07:56 Sunny 29 -1.7 27 -2.8 92 92 E 16 26 30.35 1028 8 12.87472 0 0
8:56 am 08:56 Sunny 31 -0.6 28 -2.2 89 89 E 14 22 30.33 1027 8 12.87472 0 0
9:56 am 09:56 Sunny 33 0.6 28 -2.2 82 82 ESE 16 26 30.29 1026 9 14.48406 0 0
10:56 am 10:56 Sunny 35 1.7 29 -1.7 78 78 ESE 16 26 30.29 1026 10 16.0934 0 0
11:56 am 11:56 Sunny 36 2.2 29 -1.7 76 76 E 12 19 30.3 1026 10 16.0934 0 0
12:56 pm 12:56 Sunny 36 2.2 29 -1.7 76 76 E 10 17 30.27 1025 10 16.0934 0 0
1:56 pm 13:56 Sunny 38 3.3 28 -2.2 68 68 E 13 20 30.2 1023 10 16.0934 0 0
2:56 pm 14:56 Sunny 42 5.6 28 -2.2 58 58 E 14 22 30.15 1021 10 16.0934 0 0
3:56 pm 15:56 Partly Cloudy 41 5 26 -3.3 55 55 ESE 16 26 30.14 1021 10 16.0934 0 0
4:56 pm 16:56 Cloudy 39 3.9 28 -2.2 65 65 ESE 13 20 30.11 1020 10 16.0934 0 0
5:56 pm 17:56 Cloudy 40 4.4 30 -1.1 68 68 ESE 9 15 30.1 1019 10 16.0934 0 0
6:56 pm 18:56 Cloudy with Light Rain 39 3.9 32 0 76 76 SE 12 19 30.08 1019 10 16.0934 0.001 0.001
7:56 pm 19:56 Cloudy with Light Rain 38 3.3 35 1.7 89 89 SSE 9 15 30.08 1019 10 16.0934 0.001 0.001
8:11 pm 20:11 Cloudy with Light Rain 37 3 37 3 100 100 SE 9 15 30.08 1019 9 14.48406 0.001 0.001
8:32 pm 20:32 Cloudy 37 3 37 3 100 100 ESE 10 17 30.05 1018 10 16.0934 0.001 0.001
8:43 pm 20:43 Cloudy 37 3 37 3 100 100 SE 12 19 30.05 1018 7 11.26538 0.001 0.001
8:56 pm 20:56 Cloudy with Light Rain 38 3.3 38 3.3 100 100 SE 10 17 30.04 1017 9 14.48406 0.001 0.001
9:33 pm 21:33 Cloudy with Light Rain 37 3 37 3 100 100 SE 13 20 30.03 1017 8 12.87472 0.001 0.001
9:56 pm 21:56 Cloudy with Mist and Fog 38 3.3 38 3.3 100 100 SSE 12 19 30.02 1017 6 9.65604 0.001 0.001
10:30 pm 22:30 Cloudy with Mist and Fog 39 4 39 4 100 100 SSE 13 20 30.03 1017 6 9.65604 0.001 0.001
10:56 pm 22:56 Cloudy with Mist and Fog 39 3.9 39 3.9 100 100 SSE 10 17 30.02 1017 5 8.0467 0.001 0.001
11:56 pm 23:56 Cloudy with Light Rain 40 4.4 40 4.4 100 100 SSE 12 19 29.99 1016 6 9.65604 0.001 0.001

Powered by AerisWeather